カタログに戻る

BREEZE-M DEB

運用中HEO
NORAD 32499·DEBRIS·🇷🇺 Russia

打ち上げ Feb 28, 2006 から Baikonur Cosmodrome

Loading…

次のパス (今後24時間)

TLE

最新Source: Space-Track

元期: Sep 14, 2026, 06:34 UTC

1 32499U 06006AN  26257.27429476  .00001269  00000-0  68221-3 0  9992
2 32499  51.6326 258.4655 4691594 129.6832 282.1865  6.02147434 31115

AllMySatでBREEZE-M DEBをリアルタイム追跡

Download on the App Store